Content
SEND FEEDBACK

Daily
Averages
Monthly
Summary
Canada

STEVESTON, BRITISH COLUMBIA


Home > North America > Canada > British Columbia
Elevation: 7 feet     Latitude: 49 10N     Longitude: 123 10W

WEATHER
 
SELECT A DAY
Number of Records: 249,649;   Date Range: 5/15/97 - 8/26/14
 
SHARE

PRINT THIS DATA

[ ← Previous Day ]
WEATHER ALMANAC - JANUARY 21, 2013
[ Next Day → ]
[ °C ]   °F
Weather ElementAverageHighLow
Temperature37 °F39.2 °F (9:15 am)35.6 °F (5:55 am)
Dewpoint35.4 °F37.4 °F (12:35 am)32 °F (9:55 am)
Humidity94 %100 % (12:35 am)75 % (11:35 am)
Barometer30.20 in30.27 in (12:35 am)30.13 in (6:15 pm)
Wind Speed3.9 mph9.2 mph (1:55 am)
Weather ElementAverage
Visibility8.8 mi
Wind DirectionSSW (209.1 °)

Weather ElementTotal
Precipitation---
Heating Degree Days27.6 (Base 65)
Averaged from 66 records on January 21, 2013
WEATHER CONDITIONS BREAKOUT
WIND DIRECTION BREAKOUT
WEATHER BY HOUR - JANUARY 21, 2013
[ °C ]   °F
Local TimeTemperatureDewpointHumidityBarometerVisibilityWind DirectionWind SpeedGust SpeedPrecipitationEventsConditions
12:35 AM37.4 °F37.4 °F100 %30.27 in10.0 miNorth (360°)6.9 mphOvercast
12:55 AM37.4 °F37.4 °F100 %30.27 in10.0 miNorth (360°)8.1 mphOvercast
1:15 AM37.4 °F37.4 °F100 %30.27 in10.0 miNorth (360°)6.9 mphOvercast
1:35 AM37.4 °F37.4 °F100 %30.27 in10.0 miNorth (360°)6.9 mphOvercast
1:55 AM37.4 °F37.4 °F100 %30.27 in10.0 miNorth (350°)9.2 mphOvercast
2:15 AM37.4 °F37.4 °F100 %30.27 in7.0 miNNW (340°)6.9 mphOvercast
2:35 AM37.4 °F37.4 °F100 %30.27 in10.0 miNorth (350°)6.9 mphOvercast
2:55 AM37.4 °F37.4 °F100 %30.26 in10.0 miNorth (350°)6.9 mphOvercast
3:15 AM37.4 °F37.4 °F100 %30.26 in10.0 miNorth (350°)8.1 mphOvercast
3:35 AM37.4 °F37.4 °F100 %30.26 in10.0 miNorth (350°)5.8 mphOvercast
3:55 AM37.4 °F35.6 °F93 %30.25 in10.0 miNorth (350°)6.9 mphOvercast
4:15 AM37.4 °F37.4 °F100 %30.25 in10.0 miNorth (350°)6.9 mphOvercast
4:35 AM37.4 °F35.6 °F93 %30.24 in10.0 miNorth (350°)6.9 mphMostly Cloudy
5:15 AM37.4 °F35.6 °F93 %30.23 in10.0 miNorth (360°)6.9 mphMostly Cloudy
5:35 AM37.4 °F35.6 °F93 %30.23 in10.0 miNorth (350°)6.9 mphMostly Cloudy
5:55 AM35.6 °F35.6 °F100 %30.23 in10.0 miNorth (350°)5.8 mphScattered Clouds
6:15 AM35.6 °F35.6 °F100 %30.22 in10.0 miNorth (360°)5.8 mphScattered Clouds
6:35 AM35.6 °F35.6 °F100 %30.21 in10.0 miNorth (350°)5.8 mphMostly Cloudy
6:55 AM35.6 °F35.6 °F100 %30.21 in10.0 miNorth (350°)3.5 mphMostly Cloudy
7:15 AM35.6 °F35.6 °F100 %30.20 in10.0 miNorth (360°)5.8 mphMostly Cloudy
7:35 AM35.6 °F35.6 °F100 %30.21 in10.0 miNorth (360°)4.6 mphMostly Cloudy
7:55 AM37.4 °F35.6 °F93 %30.21 in10.0 miNorth (360°)5.8 mphOvercast
8:15 AM37.4 °F35.6 °F93 %30.20 in10.0 miNorth (360°)4.6 mphOvercast
8:35 AM37.4 °F35.6 °F93 %30.21 in10.0 miNNW (340°)5.8 mphOvercast
8:55 AM37.4 °F35.6 °F93 %30.21 in10.0 miCalmOvercast
9:15 AM39.2 °F35.6 °F87 %30.22 in10.0 miNorth (360°)4.6 mphOvercast
9:35 AM37.4 °F35.6 °F93 %30.22 in10.0 miNNE (20°)4.6 mphMostly Cloudy
9:55 AM37.4 °F32.0 °F81 %30.22 in10.0 miCalmClear
10:15 AM37.4 °F32.0 °F81 %30.23 in10.0 miNNE (30°)3.5 mphClear
10:35 AM37.4 °F32.0 °F81 %30.23 in10.0 miNNE (30°)4.6 mphClear
10:55 AM37.4 °F32.0 °F81 %30.23 in10.0 miNNE (20°)5.8 mphClear
11:15 AM37.4 °F32.0 °F81 %30.23 in10.0 miNNE (20°)4.6 mphClear
11:35 AM39.2 °F32.0 °F75 %30.23 in10.0 miNorth (360°)4.6 mphClear
11:55 AM39.2 °F32.0 °F75 %30.22 in10.0 miNorth (360°)5.8 mphClear
12:15 PM39.2 °F32.0 °F75 %30.21 in10.0 miNorth (360°)5.8 mphClear
12:35 PM39.2 °F35.6 °F87 %30.20 in10.0 miNorth (360°)5.8 mphClear
12:55 PM39.2 °F35.6 °F87 %30.19 in10.0 miNorth (360°)5.8 mphClear
1:15 PM39.2 °F35.6 °F87 %30.19 in10.0 miNorth (350°)6.9 mphClear
1:35 PM39.2 °F35.6 °F87 %30.18 in10.0 miNorth (350°)5.8 mphClear
1:55 PM39.2 °F35.6 °F87 %30.18 in10.0 miNNW (340°)4.6 mphClear
2:15 PM39.2 °F35.6 °F87 %30.18 in10.0 miNNW (330°)5.8 mphPartly Cloudy
2:35 PM39.2 °F35.6 °F87 %30.17 in10.0 miNNW (330°)4.6 mphPartly Cloudy
2:55 PM37.4 °F35.6 °F93 %30.15 in10.0 miNNW (340°)5.8 mphPartly Cloudy
3:15 PM37.4 °F35.6 °F93 %30.15 in10.0 miNorth (350°)4.6 mphPartly Cloudy
3:35 PM37.4 °F35.6 °F93 %30.15 in10.0 miNNW (330°)4.6 mphScattered Clouds
3:55 PM37.4 °F35.6 °F93 %30.15 in10.0 miNW (320°)3.5 mphMostly Cloudy
4:15 PM37.4 °F35.6 °F93 %30.15 in10.0 miCalmMostly Cloudy
4:35 PM37.4 °F35.6 °F93 %30.15 in10.0 miCalmOvercast
4:55 PM35.6 °F35.6 °F100 %30.15 in10.0 miCalmOvercast
5:15 PM35.6 °F35.6 °F100 %30.15 in10.0 miCalmOvercast
5:35 PM35.6 °F35.6 °F100 %30.14 in8.0 miNorthOvercast
6:15 PM35.6 °F35.6 °F100 %30.13 in8.0 miCalmOvercast
6:35 PM35.6 °F35.6 °F100 %30.13 in7.0 miCalmOvercast
6:55 PM35.6 °F35.6 °F100 %30.13 in7.0 miCalmOvercast
7:15 PM35.6 °F35.6 °F100 %30.13 in6.0 miCalmOvercast
7:35 PM35.6 °F35.6 °F100 %30.13 in5.0 miCalmOvercast
7:55 PM35.6 °F35.6 °F100 %30.14 in5.0 miCalmOvercast
8:15 PM35.6 °F35.6 °F100 %30.14 in4.0 miCalmOvercast
8:35 PM35.6 °F35.6 °F100 %30.15 in3.0 miCalmOvercast
9:15 PM35.6 °F35.6 °F100 %30.14 in4.0 miCalmOvercast
9:35 PM35.6 °F35.6 °F100 %30.14 in3.0 miCalmOvercast
10:15 PM35.6 °F35.6 °F100 %30.14 in4.0 miCalmOvercast
10:55 PM35.6 °F33.8 °F93 %30.13 in5.0 miCalmOvercast
11:15 PM35.6 °F33.8 °F93 %30.14 in4.0 miCalmOvercast
11:35 PM35.6 °F35.6 °F100 %30.15 in4.0 miCalmOvercast
11:55 PM35.6 °F35.6 °F100 %30.14 in5.0 miCalmOvercast
Hourly data recorded from CZBB, located miles away from Steveston, British Columbia







STORIES FROM OUR PARTNERS